Location: Unspecified
(0.0000°N, 0.0000°E)
Time: 12:13:06
(UTC+00:00)

Envisat - Pass Details

Date: 03 October 2022
Orbit: 763 x 765 km, 98.2° (Epoch: 08 December)

Event Time Altitude Azimuth Distance (km) Brightness Sun altitude
Rises 04:10:11 0° 4° (N) 3,214 6.2 -24.7°
Reaches altitude 10° 04:12:30 10° 0° (N) 2,291 5.4 -24.1°
Maximum altitude 04:17:27 57° 282° (WNW) 896 2.9 -22.9°
Enters shadow 04:17:41 56° 270° (W) 901 2.9 -22.8°
Exits shadow 04:21:44 14° 206° (SSW) 2,033 5.0 -21.8°
Drops below altitude 10° 04:22:25 10° 204° (SSW) 2,299 5.3 -21.6°
Sets 04:24:46 0° 200° (SSW) 3,227 6.1 -21.0°
